Time,TemperatureF,DewpointF,PressureIn,WindDirection,WindDirectionDegrees,WindSpeedMPH,WindSpeedGustMPH,Humidity,HourlyPrecipIn,Conditions,Clouds,dailyrainin,SoftwareType,DateUTC
2013-01-13 00:13:00,56.7,54.0,30.12,East,94,0.0,1.0,90,0.00,,,0.00,weatherlink.com 1.10,2013-01-13 05:13:00,
2013-01-13 00:28:00,56.5,54.0,30.12,East,94,0.0,0.0,90,0.00,,,0.00,weatherlink.com 1.10,2013-01-13 05:28:00,
2013-01-13 00:43:00,56.2,53.0,30.12,East,94,0.0,0.0,90,0.00,,,0.00,weatherlink.com 1.10,2013-01-13 05:43:00,
2013-01-13 00:58:00,55.9,53.0,30.12,East,94,0.0,0.0,90,0.00,,,0.00,weatherlink.com 1.10,2013-01-13 05:58:00,
2013-01-13 01:13:00,55.6,53.0,30.11,East,94,0.0,0.0,90,0.00,,,0.00,weatherlink.com 1.10,2013-01-13 06:13:00,
2013-01-13 01:28:00,55.4,53.0,30.11,East,94,0.0,0.0,90,0.00,,,0.00,weatherlink.com 1.10,2013-01-13 06:28:00,
2013-01-13 01:43:00,55.2,52.0,30.12,East,94,0.0,1.0,90,0.00,,,0.00,weatherlink.com 1.10,2013-01-13 06:43:00,
2013-01-13 01:58:00,55.0,52.0,30.12,East,94,0.0,0.0,90,0.00,,,0.00,weatherlink.com 1.10,2013-01-13 06:58:00,
2013-01-13 02:13:00,54.7,52.0,30.12,East,94,0.0,0.0,90,0.00,,,0.00,weatherlink.com 1.10,2013-01-13 07:13:00,
2013-01-13 02:28:00,54.5,52.0,30.11,East,94,0.0,0.0,90,0.00,,,0.00,weatherlink.com 1.10,2013-01-13 07:28:00,
2013-01-13 02:43:00,54.9,52.0,30.11,East,94,0.0,0.0,90,0.00,,,0.00,weatherlink.com 1.10,2013-01-13 07:43:00,
2013-01-13 02:58:00,54.8,52.0,30.11,East,94,0.0,0.0,90,0.00,,,0.00,weatherlink.com 1.10,2013-01-13 07:58:00,
2013-01-13 03:13:00,54.8,52.0,30.11,East,94,0.0,0.0,90,0.00,,,0.00,weatherlink.com 1.10,2013-01-13 08:13:00,
2013-01-13 03:28:00,54.8,52.0,30.10,East,94,0.0,1.0,90,0.00,,,0.00,weatherlink.com 1.10,2013-01-13 08:28:00,
2013-01-13 03:43:00,54.6,52.0,30.10,East,94,0.0,3.0,90,0.00,,,0.00,weatherlink.com 1.10,2013-01-13 08:43:00,
2013-01-13 03:58:00,54.6,52.0,30.10,East,94,0.0,2.0,90,0.00,,,0.00,weatherlink.com 1.10,2013-01-13 08:58:00,
2013-01-13 04:13:00,54.7,52.0,30.10,East,94,2.0,3.0,90,0.00,,,0.00,weatherlink.com 1.10,2013-01-13 09:13:00,
2013-01-13 04:28:00,54.8,52.0,30.10,East,94,2.0,3.0,90,0.00,,,0.00,weatherlink.com 1.10,2013-01-13 09:28:00,
2013-01-13 04:43:00,54.9,52.0,30.11,East,94,2.0,3.0,90,0.00,,,0.00,weatherlink.com 1.10,2013-01-13 09:43:00,
2013-01-13 04:58:00,54.8,52.0,30.11,East,94,0.0,1.0,90,0.00,,,0.00,weatherlink.com 1.10,2013-01-13 09:58:00,
2013-01-13 05:13:00,54.6,52.0,30.11,East,94,0.0,3.0,91,0.00,,,0.00,weatherlink.com 1.10,2013-01-13 10:13:00,
2013-01-13 05:28:00,54.5,52.0,30.11,East,94,2.0,6.0,91,0.00,,,0.00,weatherlink.com 1.10,2013-01-13 10:28:00,
2013-01-13 05:43:00,54.4,52.0,30.12,East,94,1.0,3.0,91,0.00,,,0.00,weatherlink.com 1.10,2013-01-13 10:43:00,
2013-01-13 05:58:00,54.2,51.0,30.12,East,94,0.0,3.0,90,0.00,,,0.00,weatherlink.com 1.10,2013-01-13 10:58:00,
2013-01-13 06:13:00,54.1,52.0,30.12,East,94,1.0,2.0,91,0.00,,,0.00,weatherlink.com 1.10,2013-01-13 11:13:00,
2013-01-13 06:28:00,54.0,52.0,30.12,East,94,0.0,6.0,91,0.00,,,0.00,weatherlink.com 1.10,2013-01-13 11:28:00,
2013-01-13 06:43:00,54.4,52.0,30.12,ESE,123,0.0,9.0,91,0.00,,,0.00,weatherlink.com 1.10,2013-01-13 11:43:00,
2013-01-13 06:58:00,54.2,52.0,30.12,ESE,123,0.0,2.0,91,0.00,,,0.00,weatherlink.com 1.10,2013-01-13 11:58:00,
2013-01-13 07:13:00,54.1,52.0,30.13,ESE,123,0.0,0.0,91,0.00,,,0.00,weatherlink.com 1.10,2013-01-13 12:13:00,
2013-01-13 07:28:00,54.2,52.0,30.13,ESE,123,0.0,0.0,91,0.00,,,0.00,weatherlink.com 1.10,2013-01-13 12:28:00,
2013-01-13 07:43:00,54.4,52.0,30.14,ESE,123,0.0,0.0,91,0.00,,,0.00,weatherlink.com 1.10,2013-01-13 12:43:00,
2013-01-13 07:58:00,54.7,52.0,30.14,ESE,123,0.0,1.0,91,0.00,,,0.00,weatherlink.com 1.10,2013-01-13 12:58:00,
2013-01-13 08:13:00,55.1,53.0,30.15,ESE,123,0.0,0.0,91,0.00,,,0.00,weatherlink.com 1.10,2013-01-13 13:13:00,
2013-01-13 08:28:00,55.4,53.0,30.15,ESE,123,0.0,0.0,91,0.00,,,0.00,weatherlink.com 1.10,2013-01-13 13:28:00,
2013-01-13 08:43:00,55.8,53.0,30.16,ESE,123,0.0,0.0,91,0.00,,,0.00,weatherlink.com 1.10,2013-01-13 13:43:00,
2013-01-13 08:58:00,55.9,53.0,30.16,ESE,123,0.0,0.0,91,0.00,,,0.00,weatherlink.com 1.10,2013-01-13 13:58:00,
2013-01-13 09:13:00,56.0,54.0,30.16,ESE,123,0.0,0.0,91,0.00,,,0.00,weatherlink.com 1.10,2013-01-13 14:13:00,
2013-01-13 09:28:00,56.6,54.0,30.16,ESE,123,0.0,1.0,91,0.00,,,0.00,weatherlink.com 1.10,2013-01-13 14:28:00,
2013-01-13 09:43:00,58.0,56.0,30.16,ESE,123,0.0,4.0,92,0.00,,,0.00,weatherlink.com 1.10,2013-01-13 14:43:00,
2013-01-13 09:58:00,58.1,56.0,30.16,ESE,123,0.0,1.0,92,0.00,,,0.00,weatherlink.com 1.10,2013-01-13 14:58:00,
2013-01-13 10:13:00,58.9,57.0,30.17,ESE,123,0.0,1.0,92,0.00,,,0.00,weatherlink.com 1.10,2013-01-13 15:13:00,
2013-01-13 10:28:00,60.2,58.0,30.16,SE,129,3.0,5.0,92,0.00,,,0.00,weatherlink.com 1.10,2013-01-13 15:28:00,
2013-01-13 10:43:00,60.0,57.0,30.16,SSE,149,3.0,5.0,91,0.00,,,0.00,weatherlink.com 1.10,2013-01-13 15:43:00,
2013-01-13 10:58:00,60.3,57.0,30.16,SSE,159,4.0,5.0,90,0.00,,,0.00,weatherlink.com 1.10,2013-01-13 15:58:00,
2013-01-13 11:13:00,60.6,58.0,30.15,SSE,161,5.0,6.0,90,0.00,,,0.00,weatherlink.com 1.10,2013-01-13 16:13:00,
2013-01-13 11:29:00,61.7,59.0,30.15,South,177,3.0,6.0,89,0.00,,,0.00,weatherlink.com 1.10,2013-01-13 16:29:00,
2013-01-13 11:44:00,62.5,59.0,30.15,SSE,149,5.0,6.0,88,0.00,,,0.00,weatherlink.com 1.10,2013-01-13 16:44:00,
2013-01-13 11:59:00,63.7,60.0,30.13,SE,145,2.0,6.0,88,0.00,,,0.00,weatherlink.com 1.10,2013-01-13 16:59:00,
2013-01-13 12:14:00,64.3,60.0,30.13,SSE,162,3.0,6.0,86,0.00,,,0.00,weatherlink.com 1.10,2013-01-13 17:14:00,
2013-01-13 12:29:00,64.3,60.0,30.13,SSE,159,1.0,6.0,86,0.00,,,0.00,weatherlink.com 1.10,2013-01-13 17:29:00,
2013-01-13 12:44:00,66.2,62.0,30.12,SSE,158,0.0,1.0,85,0.00,,,0.00,weatherlink.com 1.10,2013-01-13 17:44:00,
2013-01-13 12:59:00,67.0,61.0,30.12,SSE,157,4.0,8.0,82,0.00,,,0.00,weatherlink.com 1.10,2013-01-13 17:59:00,
2013-01-13 13:14:00,65.7,61.0,30.10,South,169,5.0,8.0,84,0.00,,,0.00,weatherlink.com 1.10,2013-01-13 18:14:00,
2013-01-13 13:29:00,65.5,61.0,30.10,SSE,153,0.0,6.0,85,0.00,,,0.00,weatherlink.com 1.10,2013-01-13 18:29:00,
2013-01-13 13:44:00,66.1,61.0,30.10,SSE,167,4.0,6.0,84,0.00,,,0.00,weatherlink.com 1.10,2013-01-13 18:44:00,
2013-01-13 13:59:00,66.0,61.0,30.10,South,186,2.0,7.0,84,0.00,,,0.00,weatherlink.com 1.10,2013-01-13 18:59:00,
2013-01-13 14:14:00,65.4,60.0,30.10,SSE,152,4.0,8.0,83,0.00,,,0.00,weatherlink.com 1.10,2013-01-13 19:14:00,
2013-01-13 14:29:00,64.5,60.0,30.10,South,169,4.0,7.0,85,0.00,,,0.00,weatherlink.com 1.10,2013-01-13 19:29:00,
2013-01-13 14:44:00,64.5,60.0,30.10,SSW,205,3.0,7.0,86,0.00,,,0.00,weatherlink.com 1.10,2013-01-13 19:44:00,
2013-01-13 14:59:00,64.7,61.0,30.10,South,188,2.0,7.0,86,0.00,,,0.00,weatherlink.com 1.10,2013-01-13 19:59:00,
2013-01-13 15:14:00,64.8,61.0,30.11,South,186,0.0,6.0,86,0.00,,,0.00,weatherlink.com 1.10,2013-01-13 20:14:00,
2013-01-13 15:29:00,64.3,60.0,30.11,SSE,163,3.0,6.0,86,0.00,,,0.00,weatherlink.com 1.10,2013-01-13 20:29:00,
2013-01-13 15:44:00,63.4,60.0,30.11,South,175,0.0,4.0,87,0.00,,,0.00,weatherlink.com 1.10,2013-01-13 20:44:00,
2013-01-13 15:59:00,63.1,59.0,30.12,South,178,3.0,4.0,87,0.00,,,0.00,weatherlink.com 1.10,2013-01-13 20:59:00,
2013-01-13 16:14:00,62.6,59.0,30.12,South,177,0.0,4.0,87,0.00,,,0.00,weatherlink.com 1.10,2013-01-13 21:14:00,
2013-01-13 16:29:00,62.4,59.0,30.12,South,176,1.0,5.0,88,0.00,,,0.00,weatherlink.com 1.10,2013-01-13 21:29:00,
2013-01-13 16:44:00,62.0,59.0,30.13,South,176,0.0,2.0,88,0.00,,,0.00,weatherlink.com 1.10,2013-01-13 21:44:00,
2013-01-13 16:59:00,61.6,58.0,30.13,South,176,0.0,3.0,88,0.00,,,0.00,weatherlink.com 1.10,2013-01-13 21:59:00,
2013-01-13 17:14:00,61.1,58.0,30.13,South,176,0.0,3.0,88,0.00,,,0.00,weatherlink.com 1.10,2013-01-13 22:14:00,
2013-01-13 17:29:00,60.5,57.0,30.13,South,177,3.0,4.0,88,0.00,,,0.00,weatherlink.com 1.10,2013-01-13 22:29:00,
2013-01-13 17:44:00,60.0,57.0,30.13,SSE,167,2.0,5.0,89,0.00,,,0.00,weatherlink.com 1.10,2013-01-13 22:44:00,
2013-01-13 17:59:00,60.1,57.0,30.13,SSW,205,5.0,7.0,89,0.00,,,0.00,weatherlink.com 1.10,2013-01-13 22:59:00,
2013-01-13 18:14:00,60.7,58.0,30.13,SW,219,1.0,8.0,89,0.00,,,0.00,weatherlink.com 1.10,2013-01-13 23:14:00,
2013-01-13 18:29:00,60.9,58.0,30.13,South,186,1.0,9.0,89,0.00,,,0.00,weatherlink.com 1.10,2013-01-13 23:29:00,
2013-01-13 18:44:00,60.8,58.0,30.12,SSW,209,4.0,7.0,89,0.00,,,0.00,weatherlink.com 1.10,2013-01-13 23:44:00,
2013-01-13 18:59:00,60.2,57.0,30.12,South,188,0.0,7.0,89,0.00,,,0.00,weatherlink.com 1.10,2013-01-13 23:59:00,
2013-01-13 19:14:00,60.1,57.0,30.12,SSW,198,1.0,7.0,89,0.00,,,0.00,weatherlink.com 1.10,2013-01-14 00:14:00,
2013-01-13 19:29:00,60.3,57.0,30.12,SSW,213,0.0,8.0,89,0.00,,,0.00,weatherlink.com 1.10,2013-01-14 00:29:00,
2013-01-13 19:44:00,60.3,57.0,30.11,SSW,197,2.0,8.0,89,0.00,,,0.00,weatherlink.com 1.10,2013-01-14 00:44:00,
2013-01-13 19:59:00,60.5,57.0,30.11,South,184,0.0,7.0,89,0.00,,,0.00,weatherlink.com 1.10,2013-01-14 00:59:00,
2013-01-13 20:14:00,60.9,58.0,30.11,SSW,200,2.0,6.0,89,0.00,,,0.00,weatherlink.com 1.10,2013-01-14 01:14:00,
2013-01-13 20:33:00,60.9,58.0,30.11,SSW,198,5.0,11.0,89,0.00,,,0.00,weatherlink.com 1.10,2013-01-14 01:33:00,
2013-01-13 20:44:00,60.6,57.0,30.11,South,190,1.0,10.0,89,0.00,,,0.00,weatherlink.com 1.10,2013-01-14 01:44:00,
2013-01-13 20:59:00,60.4,57.0,30.11,SW,233,6.0,7.0,89,0.00,,,0.00,weatherlink.com 1.10,2013-01-14 01:59:00,
2013-01-13 21:14:00,60.6,57.0,30.11,South,191,7.0,8.0,89,0.00,,,0.00,weatherlink.com 1.10,2013-01-14 02:14:00,
2013-01-13 21:29:00,60.4,57.0,30.11,SSW,207,0.0,7.0,89,0.00,,,0.00,weatherlink.com 1.10,2013-01-14 02:29:00,
2013-01-13 21:44:00,60.2,57.0,30.11,South,189,2.0,7.0,89,0.00,,,0.00,weatherlink.com 1.10,2013-01-14 02:44:00,
2013-01-13 21:59:00,60.2,57.0,30.12,SSW,194,0.0,2.0,89,0.00,,,0.00,weatherlink.com 1.10,2013-01-14 02:59:00,
2013-01-13 22:14:00,60.5,57.0,30.13,SW,220,0.0,2.0,89,0.00,,,0.00,weatherlink.com 1.10,2013-01-14 03:14:00,
2013-01-13 22:29:00,61.1,58.0,30.14,WSW,242,0.0,5.0,89,0.00,,,0.00,weatherlink.com 1.10,2013-01-14 03:29:00,
2013-01-13 22:44:00,61.4,58.0,30.14,SW,234,0.0,4.0,89,0.00,,,0.00,weatherlink.com 1.10,2013-01-14 03:44:00,
2013-01-13 22:59:00,61.6,58.0,30.15,SSW,194,0.0,6.0,89,0.00,,,0.00,weatherlink.com 1.10,2013-01-14 03:59:00,
2013-01-13 23:14:00,61.6,58.0,30.15,SSW,205,0.0,7.0,89,0.00,,,0.00,weatherlink.com 1.10,2013-01-14 04:14:00,
2013-01-13 23:29:00,61.7,59.0,30.15,South,189,0.0,4.0,89,0.00,,,0.00,weatherlink.com 1.10,2013-01-14 04:29:00,
2013-01-13 23:44:00,62.0,59.0,30.15,South,189,0.0,4.0,89,0.00,,,0.00,weatherlink.com 1.10,2013-01-14 04:44:00,
2013-01-13 23:59:00,61.9,59.0,30.15,WSW,245,0.0,2.0,89,0.00,,,0.00,weatherlink.com 1.10,2013-01-14 04:59:00,